Regional Weather Roundup
Issued by NWS Goodland, KS

Home | Current Version | Previous Version | Text Only | Print | Product List | Glossary Off
Versions: 1 2 3 4 5 6 7 8 9 10 11 12 13 14 15 16 17 18 19 20 21 22 23 24 25 26 27 28 29 30 31 32 33 34 35 36 37 38 39 40 41 42 43 44 45 46 47 48 49 50

638
ASUS43 KGLD 041408
RWRGLD

GOODLAND FORECAST AREA HOURLY WEATHER ROUNDUP
NATIONAL WEATHER SERVICE GOODLAND KS
700 AM MST SUN DEC 04 2016

...OFFICIAL OBSERVATIONS...

CITY           SKY/WX    TMP DP  RH WIND       PRES   REMARKS
GOODLAND KS    CLEAR     20  11  68 W10       30.04R WCI   9
HILL CITY KS   CLEAR     25  19  78 W6        30.05R
IMPERIAL NEB   CLEAR     23  14  68 W10       30.01S WCI  12
MCCOOK NEB     CLEAR     22  16  78 W12       30.02R WCI  10
AKRON CO       CLOUDY    19   9  65 W12       30.02R WCI   7
BURLINGTON CO  CLOUDY    17   8  67 W9        30.05R
LIMON CO       CLOUDY     4   0  83 N7        30.05R
$$

...UNOFFICIAL OBSERVATIONS...

CITY           SKY/WX    TMP DP  RH WIND       PRES   REMARKS
COLBY KS       CLEAR     23  18  80 W10       30.06R WCI  12
LENORA KS        N/A     26  32 100 MISG        N/A
NORTON KS      CLEAR     25  18  74 W12       30.01S WCI  14
SHARON SPRINGS   N/A     19  13  76 W6          N/A
TRENTON NEB      N/A     26  32 100 NW8         N/A
KIT CARSON CO    N/A     10   6  82 CALM        N/A
YUMA CO        FAIR      19  10  68 W9        30.03R
$$




USA.gov is the U.S. government's official web portal to all federal, state and local government web resources and services.